User: anonymous   Login
Location: Del Oro Observatory
(38.3044°N, 104.8119°W)
Time: 00:11:41
(UTC-06:00)
Language:

Cosmos 1602 Rocket - Orbit

View from above orbital plane
View from above orbital plane
View from above satellite
View from above satellite

Ground track
Ground track

The orbit data is extracted from the following two-line orbital elements,

1 15332U 84105B   15124.20109404  .00000305  00000-0  34375-4 0  9999
2 15332 082.5363 192.3643 0022417 048.6393 335.3998 14.83063863651712
Epoch (UTC): 04 May 2015 04:49:34
Eccentricity: 0.0022417
inclination: 82.5363°
perigee height: 604 km
apogee height: 635 km
right ascension of ascending node: 192.3643°
argument of perigee: 48.6393°
revolutions per day: 14.83063863
mean anomaly at epoch: 335.3998°
orbit number at epoch: 65171

The dashed part of the orbit path shows where the satellite is in the earth's shadow,  

DLR